Vertical_Velocity
-1 0 5 -1 7 -0 -2 -4 2 0 -2 3 -0 0 -1 0 -1 -1 0 1 1 -0 -0 0 1 -1 1 -0 0 1 2 2 0 -8 -17 4 2 -0 3 4 -3 -1 -2 -7
-1 -1 -2 1 2 4 6 -0 0 1 2 -0 0 -2 -1 -1 1 -1 1 -0 -1 -0 -0 1 2 0 0 -0 -0 1 -1 -2 -1 -15 -4 -5 1 -2 2 1 1 -3 3 -6
2 -2 3 6 2 6 8 -2 -2 0 2 5 0 0 -3 -1 2 -1 1 -1 1 1 1 -0 -3 -2 -2 -2 -0 2 -1 0 2 1 -2 9 -1 -2 -1 7 4 -1 -3 -4
-6 -0 -5 -4 -5 9 13 3 -4 2 -1 -2 0 -1 1 -0 -1 1 -0 -2 1 -1 0 -0 -1 -1 -5 -4 1 1 2 1 4 -3 -1 3 3 2 -2 5 -5 9 -6 2
3 -3 1 -4 1 -2 6 6 -5 1 -0 -1 1 0 -3 0 -4 1 -3 2 -1 1 1 -5 -2 8 1 -1 -0 -0 -0 -3 2 -4 -2 3 2 -2 0 -0 -3 1 2 -9
0 -3 -6 -1 -4 -0 6 -1 8 0 -3 1 3 -4 -4 -3 2 -4 0 3 2 2 -8 2 1 1 -1 -1 1 -0 2 1 1 -8 1 -1 -3 -3 -1 -3 -0 2 3 -13
-1 -0 -2 -3 2 -1 -3 -6 3 5 -3 2 -2 -0 1 -0 -4 5 -4 6 4 -4 -1 -4 -3 6 3 5 -5 3 1 2 1 -1 -1 2 -18 0 2 3 4 -1 -3 -0
-2 -4 -5 -4 -2 -1 6 6 1 3 -1 1 -3 1 0 -0 -4 3 5 -11 4 -1 -4 -1 -1 -3 -6 -4 -0 1 2 1 -0 2 -0 -8 -14 0 -0 4 3 4 3 -1
-1 -0 2 -0 -3 0 -4 -2 -0 1 7 -4 6 2 1 1 -1 -3 -1 -4 -1 2 0 2 1 -2 -1 -5 1 -0 -1 1 3 0 2 -1 5 -0 1 0 4 2 3 1
-1 0 -4 2 3 3 -0 -2 1 2 4 -11 2 1 2 0 0 1 1 0 -2 1 0 2 0 -3 -3 -3 0 -0 1 1 -0 -1 -0 -7 -0 -1 1 2 4 1 2 3
-0 2 -2 -2 -1 4 4 -2 1 2 3 -12 -1 3 1 1 2 3 -2 2 3 2 2 2 -3 1 -1 -1 -2 -2 -3 -1 -1 1 2 -5 2 -7 -5 6 0 1 -0 2
0 -1 1 1 4 3 10 -2 0 4 12 -11 3 -3 5 5 2 10 -1 0 0 -2 2 -0 1 0 -0 -0 -1 -3 -6 -4 0 -1 -2 2 3 2 7 1 6 -1 4 1
0 1 -3 2 -4 3 10 8 11 10 7 -14 9 -3 -5 -1 1 7 1 1 0 -0 1 2 0 1 -1 -0 -4 -1 -2 0 -1 -3 -2 1 4 5 -0 1 3 1 4 6
-0 2 -2 2 3 -4 4 6 7 9 9 3 -6 -3 4 3 1 3 2 2 6 5 2 1 0 1 1 -1 -3 -2 2 1 -0 -2 -2 2 2 -0 0 -1 3 -2 0 3
-2 -3 1 -2 2 3 6 -1 2 6 5 2 1 -3 -6 -0 -1 -0 1 1 4 2 4 2 -2 0 1 -0 -1 0 2 5 3 3 4 4 2 5 2 -1 -4 0 -0 -5
-1 0 1 3 0 6 12 -8 -2 1 3 10 -1 2 0 1 -2 -1 -2 -2 1 2 5 -1 -1 2 -1 1 0 4 2 1 4 3 -0 3 1 10 3 -4 -2 0 2 2
2 -2 -1 4 1 14 13 -3 -0 -0 6 -0 -0 -1 0 -1 -1 -1 0 -0 -1 3 1 2 1 -1 0 -1 -0 1 -0 1 8 1 -6 0 1 -4 -1 1 0 0 3 4
-1 -0 1 3 -2 0 8 0 5 -4 2 -2 1 -5 -1 -0 0 1 -0 1 1 1 0 -1 0 0 -2 -2 2 -0 -0 -1 3 -2 3 3 1 4 1 2 -0 -0 -2 -1
-2 1 2 -2 -0 -0 -1 3 4 9 2 2 1 0 -3 0 -1 -1 -1 -1 -0 -0 0 0 -0 1 0 3 2 1 2 2 -1 0 4 2 -1 1 0 -0 3 0 -1 0
-5 -3 0 1 -3 -3 1 -1 -0 -1 -2 -1 0 -0 -3 -1 -0 -1 -0 0 -0 -0 3 0 -3 3 1 1 2 2 1 2 0 -5 -11 -5 -1 -1 -2 -0 2 1 0 -0
-8 0 2 1 -2 4 1 1 -0 0 -1 0 1 -0 0 -0 -0 0 0 -0 -0 1 2 3 1 2 2 1 0 1 1 1 0 2 3 2 2 1 -1 -0 1 1 2 1
6 5 -0 -1 -0 -1 -3 0 -2 -0 0 0 0 1 -0 0 -1 1 -0 0 -0 1 0 1 0 3 2 0 1 1 1 0 1 1 1 3 3 2 1 1 1 1 3 3
1 1 1 -1 -1 -7 -3 -1 -4 -1 -0 -0 -0 0 -0 -2 -1 0 -0 1 -0 1 -2 1 3 4 0 1 0 0 0 0 1 1 1 1 1 1 0 1 2 1 -1 1
1 1 -2 -0 -1 1 1 1 2 2 1 1 1 1 1 -0 1 -0 1 -2 -2 -1 0 2 2 3 2 2 1 -0 -0 -0 0 -0 -0 -0 -0 -0 1 0 1 2 -1 2
1 1 0 0 1 3 2 -0 2 0 1 3 1 -0 1 0 0 -0 -1 -2 0 1 2 2 3 0 0 0 0 1 0 -0 -0 -0 -0 0 -0 -1 1 1 1 1 2 1
-2 -0 -1 -4 0 0 -2 -3 -1 0 -1 0 2 0 1 -1 -0 0 1 2 1 3 1 4 1 -0 0 1 1 1 1 1 1 0 -1 0 -1 -1 0 2 -0 -0 0 -0
3 2 -0 1 2 2 2 -1 -3 0 1 1 1 2 1 -1 -0 -1 1 3 3 5 3 -0 0 0 -0 0 1 1 1 1 0 1 1 0 -0 -0 -1 -3 -2 -0 -0 0
Height
1498 1496 1496 1494 1494 1493 1492 1492 1490 1484 1484 1486 1484 1480 1471 1470 1466 1467 1467 1466 1463 1461 1456 1457 1454 1445 1437 1441 1442 1441 1440 1437 1431 1414 1391 1394 1395 1393 1392 1392 1389 1382 1375 1370
1495 1494 1492 1491 1490 1488 1488 1486 1484 1482 1481 1482 1480 1474 1469 1466 1463 1463 1463 1461 1458 1458 1458 1458 1446 1444 1442 1441 1442 1443 1441 1435 1430 1413 1397 1399 1397 1391 1392 1387 1384 1385 1382 1364
1491 1491 1490 1490 1488 1487 1486 1485 1485 1483 1481 1478 1477 1474 1469 1464 1461 1461 1460 1458 1456 1457 1456 1452 1450 1443 1440 1442 1441 1441 1443 1438 1432 1427 1417 1411 1408 1399 1397 1395 1394 1381 1371 1362
1485 1485 1484 1483 1484 1484 1483 1479 1479 1478 1477 1477 1478 1476 1474 1469 1466 1461 1459 1458 1455 1455 1458 1451 1446 1440 1440 1438 1436 1439 1442 1435 1429 1422 1417 1411 1405 1400 1394 1395 1389 1386 1372 1366
1485 1483 1483 1484 1482 1482 1484 1482 1482 1479 1477 1476 1478 1477 1473 1466 1462 1462 1459 1458 1455 1456 1455 1451 1447 1446 1445 1444 1435 1437 1437 1432 1426 1423 1416 1409 1402 1395 1389 1385 1382 1377 1374 1365
1483 1481 1480 1480 1481 1482 1480 1479 1477 1478 1473 1470 1471 1465 1463 1460 1460 1455 1454 1453 1454 1453 1448 1445 1442 1440 1439 1436 1435 1436 1434 1434 1429 1418 1409 1407 1407 1385 1378 1374 1374 1371 1372 1364
1483 1481 1478 1478 1477 1477 1477 1478 1477 1474 1467 1469 1464 1462 1461 1458 1457 1453 1451 1451 1450 1446 1445 1441 1436 1431 1427 1427 1423 1426 1427 1429 1427 1418 1420 1421 1386 1380 1380 1378 1380 1374 1372 1369
1483 1481 1478 1476 1475 1476 1474 1473 1475 1472 1465 1463 1460 1459 1456 1452 1451 1449 1447 1444 1444 1443 1441 1441 1436 1430 1429 1419 1416 1417 1423 1426 1423 1418 1418 1400 1387 1386 1389 1388 1387 1387 1381 1376
1481 1480 1478 1477 1475 1473 1472 1471 1471 1471 1467 1457 1457 1456 1453 1450 1446 1442 1441 1440 1441 1441 1440 1440 1434 1433 1424 1426 1419 1422 1423 1422 1422 1420 1412 1411 1394 1390 1387 1388 1384 1393 1387 1383
1479 1478 1476 1475 1474 1472 1470 1469 1468 1467 1464 1456 1456 1454 1452 1451 1446 1442 1439 1439 1439 1439 1438 1435 1430 1433 1421 1426 1418 1425 1423 1424 1426 1426 1415 1404 1398 1390 1386 1391 1401 1395 1392 1390
1479 1476 1473 1472 1470 1469 1469 1466 1464 1464 1459 1453 1451 1451 1450 1447 1447 1445 1441 1440 1437 1437 1435 1431 1426 1426 1421 1423 1415 1418 1419 1420 1425 1422 1414 1411 1399 1392 1396 1403 1399 1397 1394 1393
1475 1472 1470 1468 1465 1464 1462 1459 1458 1457 1454 1449 1447 1445 1442 1441 1442 1443 1441 1437 1435 1434 1433 1429 1425 1419 1419 1419 1415 1414 1420 1412 1409 1411 1404 1402 1403 1404 1405 1405 1403 1400 1397 1395
1469 1466 1464 1462 1459 1457 1458 1454 1452 1450 1446 1440 1437 1435 1436 1434 1435 1435 1437 1433 1432 1431 1431 1427 1424 1424 1418 1414 1417 1412 1412 1409 1410 1409 1403 1403 1406 1406 1407 1406 1405 1402 1398 1396
1467 1463 1459 1456 1454 1452 1452 1450 1448 1447 1442 1436 1432 1432 1431 1430 1430 1430 1430 1429 1428 1428 1428 1425 1421 1418 1412 1414 1411 1412 1415 1412 1408 1406 1407 1407 1408 1410 1410 1407 1405 1401 1399 1396
1462 1458 1455 1452 1448 1446 1445 1442 1440 1439 1443 1434 1429 1428 1426 1425 1425 1425 1425 1424 1424 1424 1422 1420 1416 1412 1412 1409 1411 1414 1425 1427 1420 1414 1422 1421 1414 1413 1410 1407 1404 1402 1399 1396
1456 1452 1448 1447 1445 1442 1438 1435 1434 1432 1433 1430 1429 1426 1423 1422 1422 1421 1421 1421 1421 1421 1417 1413 1409 1407 1410 1406 1410 1433 1431 1430 1429 1425 1422 1418 1416 1414 1411 1408 1405 1402 1399 1397
1450 1448 1444 1442 1440 1439 1437 1435 1432 1432 1432 1431 1428 1423 1421 1421 1420 1419 1419 1419 1418 1418 1414 1410 1408 1408 1407 1407 1422 1434 1431 1428 1426 1424 1419 1416 1415 1414 1410 1407 1404 1401 1398 1396
1445 1441 1440 1438 1437 1436 1435 1432 1430 1428 1429 1430 1429 1425 1422 1421 1420 1420 1418 1418 1416 1413 1411 1408 1407 1407 1412 1428 1437 1435 1431 1426 1425 1423 1421 1420 1417 1415 1410 1406 1402 1398 1396 1392
1443 1439 1435 1434 1434 1433 1432 1430 1429 1428 1432 1428 1427 1428 1428 1422 1420 1419 1419 1418 1417 1413 1412 1410 1411 1421 1433 1440 1438 1435 1432 1430 1427 1422 1420 1418 1416 1413 1409 1406 1402 1399 1395 1393
1442 1437 1434 1432 1432 1432 1432 1429 1431 1429 1429 1428 1428 1426 1427 1426 1422 1419 1420 1418 1416 1414 1416 1414 1421 1434 1440 1440 1439 1436 1433 1430 1426 1421 1418 1416 1416 1413 1410 1407 1404 1401 1398 1395
1442 1440 1436 1435 1433 1432 1430 1430 1432 1432 1430 1429 1428 1427 1427 1426 1427 1424 1422 1420 1417 1417 1418 1415 1421 1434 1442 1441 1438 1437 1434 1432 1430 1427 1425 1422 1419 1416 1412 1409 1406 1403 1400 1396
1445 1442 1437 1436 1434 1433 1434 1434 1435 1434 1431 1429 1429 1428 1427 1427 1426 1425 1423 1422 1419 1416 1419 1416 1428 1442 1443 1441 1439 1437 1435 1433 1431 1429 1427 1424 1422 1418 1415 1412 1408 1405 1402 1399
1440 1439 1436 1436 1436 1440 1439 1443 1438 1432 1431 1430 1430 1428 1428 1427 1426 1425 1425 1424 1422 1420 1422 1430 1441 1445 1443 1442 1440 1438 1436 1434 1432 1430 1427 1425 1423 1421 1417 1414 1411 1408 1405 1402
1440 1439 1437 1438 1438 1439 1439 1439 1438 1436 1433 1432 1431 1429 1428 1427 1426 1425 1426 1425 1424 1424 1426 1435 1445 1446 1444 1442 1440 1438 1436 1434 1432 1430 1428 1426 1424 1422 1420 1417 1414 1411 1408 1405
1441 1441 1440 1439 1441 1440 1441 1442 1440 1438 1435 1432 1430 1429 1428 1426 1426 1425 1426 1426 1428 1435 1439 1445 1448 1447 1445 1443 1441 1438 1437 1435 1433 1431 1429 1427 1425 1423 1421 1419 1416 1414 1411 1408
1441 1441 1441 1442 1440 1442 1441 1440 1441 1439 1434 1431 1430 1427 1428 1428 1425 1426 1427 1426 1434 1446 1450 1451 1449 1447 1446 1444 1442 1440 1438 1436 1434 1432 1430 1428 1426 1424 1422 1421 1418 1415 1413 1411
1441 1446 1446 1446 1444 1445 1444 1443 1443 1439 1435 1431 1428 1425 1424 1427 1426 1436 1445 1449 1453 1454 1453 1452 1450 1448 1446 1445 1443 1441 1439 1437 1435 1433 1431 1429 1428 1426 1424 1421 1420 1418 1416 1414